www.pogodaiklimat.ru
Время
и дата
07:53 29.01
08:29 29.01
08:53 29.01
09:53 29.01
10:23 29.01
10:49 29.01
10:53 29.01
11:05 29.01
11:18 29.01
11:26 29.01
11:50 29.01
11:53 29.01
12:25 29.01
12:53 29.01
13:06 29.01
13:21 29.01
13:29 29.01
13:53 29.01
14:53 29.01
15:53 29.01
16:53 29.01
16:59 29.01
17:32 29.01
17:53 29.01
18:53 29.01
19:53 29.01
20:53 29.01
21:53 29.01
22:53 29.01
23:53 29.01
00:53 30.01
01:53 30.01
02:53 30.01
03:53 30.01
04:53 30.01
05:53 30.01
06:53 30.01
07:53 30.01
08:53 30.01
09:53 30.01
10:53 30.01
11:53 30.01
12:53 30.01
13:53 30.01
14:53 30.01
15:53 30.01
16:53 30.01
17:53 30.01
Ветер
(напр.,м/с)
Видим. Явления Облачность Т
(С)
Тd
(С)
f
(%)
Тe
(С)
Тes
(С)
Комфортность P
(гПа)
Po
(гПа)
Тmin
(С)
Tmax
(С)
R
(мм)
R24
(мм)
S
(см)
С 3 8 км слабый снег 10/10 1020 m
[Ns]
-20.6 -23.3 79 -28 -28 1027.8 827.4
С 2 11 км 10/10 840 м -20.6 -23.3 79 -27 -27 827.7
С 3 16 км 10/10 690 м -20.6 -23.3 79 -28 -28 1029.1 828.2
В 2 3 км слабый снег 10/10 1050 m
[Ns]
-20.6 -23.3 79 -27 -27 1030.1 828.5
В 2 2 км слабый снег 10/10 840 m
[Ns]
-20.0 -22.8 78 -26 -26 828.8
ЮВ 2 3 км дымка 10/10 570 м -21.0 -23.0 84 -27 -27 828.8
нст 3 3 км дымка 10/10 570 м -20.6 -22.8 82 -28 -28 1030.5 829.1 -20.6 -20.0 0.3
Ю 2 4 км дымка 10/10 570 м -20.6 -22.8 82 -27 -27 829.1
ЮВ 3 3 км мгла 10/10 510 м -20.6 -23.3 79 -28 -28 829.1
ЮВ 3 3 км слабый снег, дымка 10/10 510 m
[Ns]
-20.6 -22.8 82 -28 -28 829.1
штиль 0 3 км слабый снег 10/10 450 m
[Ns]
-19.0 -22.0 77 -19 -19 829.1
штиль 0 3 км слабый снег 10/10 450 m
[Ns]
-19.4 -22.2 78 -19 -19 1030.2 829.1
СВ 4 3 км слабый снег 10/10 660 m
[Ns]
-20.0 -23.3 75 -29 -29 828.5
В 4 2 км слабый снег 10/10 570 m
[Ns]
-20.6 -23.3 79 -30 -30 1030.2 828.5
В 3 3 км мгла 10/10 750 м -20.6 -23.9 75 -28 -28 828.5
В 3 5 км мгла 10/10 870 м -20.6 -23.3 79 -28 -28 828.2
В 3 5 км мгла 10/10 1020 м -20.6 -23.3 79 -28 -28 828.2
В 3 6 км мгла 10/10 1140 м -20.0 -23.3 75 -28 -28 1029.6 828.0 0.3
ЮВ 2 16 км 10/10 1170 м -21.1 -23.9 78 -27 -27 1030.1 828.2
штиль 0 16 км 10/10 990 м -21.1 -24.4 75 -21 -21 1030.8 828.5
ЮЗ 2 4 км мгла 10/10 930 м -22.8 -26.1 74 -29 -29 1031.4 828.8 -22.8 -18.9 0.3
З 2 5 км мгла 10/10 810 м -22.8 -25.6 78 -29 -29 828.8
ЮЗ 3 16 км 5/5 660 м -23.3 -26.7 74 -32 -32 опасность
обморожения
828.8
ЮЗ 3 16 км ясно -24.4 -27.2 78 -33 -33 опасность
обморожения
1032.1 828.8
ЮЗ 3 16 км ясно -24.4 -28.3 70 -33 -33 опасность
обморожения
1032.5 829.1
16 км ясно -25.0 -28.9 70 -25 -25 1032.5 828.8
штиль 0 16 км ясно -25.6 -28.9 74 -26 -26 1032.6 829.1
СЗ 2 16 км ясно -25.6 -28.9 74 -32 -32 опасность
обморожения
1032.6 829.1
Ю 2 16 км ясно -28.9 -31.7 77 -36 -36 опасность
обморожения
1033.1 828.5 -28.9 -22.2
З 2 16 км ясно -27.2 -31.1 69 -34 -34 опасность
обморожения
1031.9 828.2
штиль 0 16 км ясно -28.9 -31.7 77 -29 -29 1031.8 827.7
штиль 0 16 км ясно -28.9 -32.2 73 -29 -29 1031.3 827.1
ЮЗ 2 16 км ясно -30.6 -33.3 77 -38 -38 опасность
обморожения
1031.5 826.9
З 2 16 км ясно -29.4 -32.8 72 -37 -37 опасность
обморожения
1031.2 826.9
З 2 16 км ясно -28.3 -32.2 69 -36 -36 опасность
обморожения
1031.8 827.1 -30.6 -26.7 0.5
ЮВ 2 16 км ясно -30.6 -35.0 65 -38 -38 опасность
обморожения
1033.1 827.1
штиль 0 16 км ясно -30.6 -34.4 69 -31 -31 опасность
обморожения
1033.6 827.7
штиль 0 6 км мгла ясно -30.0 -32.8 76 -30 -30 1033.8 828.0
З 2 16 км ясно -27.8 -29.4 86 -35 -35 опасность
обморожения
1034.5 828.5
штиль 0 16 км ясно -30.0 -30.0 100 -30 -28 1035.5 828.8
СЗ 3 6 км дымка ясно -26.7 -28.9 82 -36 -33 опасность
обморожения
1036.4 829.6 -32.8 -26.7
штиль 0 16 км ясно -26.7 -27.8 90 -27 -21 1035.4 829.3
штиль 0 16 км ясно -24.4 -27.8 73 -24 -17 1034.8 828.8
штиль 0 16 км ясно -24.4 -27.8 73 -24 -18 1034.3 828.5
штиль 0 16 км ясно -24.4 -27.2 78 -24 -19 1034.9 828.8
штиль 0 16 км ясно -23.9 -27.2 74 -24 -21 1034.7 828.8
штиль 0 16 км ясно -25.0 -28.3 74 -25 -24 1035.3 829.3 -27.2 -22.8
штиль 0 16 км ясно -26.7 -30.0 74 -27 -27 1036.6 829.6
Местоположение метеостанции Hunt Field Airport: широта 42.8153 долгота -108.7261 высота над уровнем моря 1704 м.
В архиве по умолчанию представлена погода в Лэндере за последние 1-2 суток. Обновление информации о фактической погоде в базе происходит ежечасно! Архивные данные за месяц целиком и за предыдущие месяцы Вы можете получить, выбрав интересующий диапазон дат из раскрывающегося списка и нажав кнопку "Ввод!".
Внимание! Архив погоды МЕТАР в базе сайта по станциям, не включенным в климатический монитор, хранится не более 60 дней. Нет смысла пытаться выбрать более раннюю дату.
*Определитесь, кто Вы:
Внимание! Время в таблицах - местное (без учета летнего времени). Для получения всемирного времени необходимо вычесть поправку, которая равна -7 ч.
Смотрите также архив погоды в соседних городах и на ближайших метеорологических станциях:
Партнеры нашего сайта:      
Пояснения к столбцам:
  • Ветер - указаны скорость ветра в м/с - средняя за 10 мин, порывы в срок и между сроками (в фигурных скобках) и направление, откуда дует ветер: С - северный,
  • СВ - северо-восточный, В - восточный, ЮВ - юго-восточный, Ю - южный, ЮЗ - юго-западный, З - западный, СЗ - северо-западный.
  • Видимость - горизонтальная дальность видимости в метрах или километрах. При видимости от 1 до 10 км при отсутствии осадков обычно наблюдается дымка, при ухудшении видимости до 1 км и менее - туман. В сухую погоду видимость может ухудшаться дымом, пылью или мглою.
  • Явления - указаны атмосферные явления, наблюдавшиеся в срок или в последний час перед сроком; фигурными скобками обозначены явления, наблюдавшиеся между сроками (за 1-3 часа до срока); квадратными скобками обозначены град или гололедные отложения с указанием их диаметра в мм.
  • Облачность - указаны через наклонную черту общая и нижняя облачность в баллах и высота нижней границы облаков в метрах; квадратными скобками обозначены формы облаков: Ci - перистые, Cs - перисто-слоистые, Cc - перисто-кучевые, Ac - высококучевые, As - высокослоистые, Sc - слоисто-кучевые, Ns - слоисто-дождевые, Cu - кучевые, Cb - кучево-дождевые. Подробнее классификацию облаков см. в Атласе облаков (PDF).
  • T - Температура воздуха - температура, измеренная на высоте 2 м над землей.
  • Td - Температура точки росы - температура, при понижении до которой содержащийся в воздухе водяной пар достигнет насыщения.
  • f - Относительная влажность воздуха - влажноcть воздуха, измеренная на высоте 2 м над землей.
  • Te - Эффективная температура - температура, которую ощущает одетый по сезону человек в тени. Характеристика душности погоды. При расчете учитывается влияние влажности воздуха и скорости ветра на теплоощущения человека.
  • Tes - Эффективная температура на солнце - температура, которую ощущает человек, с поправкой на солнечный нагрев. Характеристика знойности погоды. Зависит от высоты солнца над горизонтом, облачности и скорости ветра. Ночью, в пасмурную погоду, а также при ветре 12 м/с и более поправка равна нулю.
  • P - Атмосферное давление - приведенное к уровню моря атмосферное давление.
  • Po - Атмосферное давление - измеренное на уровне метеостанции атмосферное давление.
  • Tmin - Минимальная температура - минимум температуры воздуха на высоте 2 м над землей.
  • Tmax - Максимальная температура - максимум температуры воздуха на высоте 2 м над землей.
  • R - Количество осадков - Количество выпавших осадков за период времени, мм. При наведении курсора мыши на число - период времени, за который выпало указанное количество осадков.
  • R24 - Количество осадков - Количество выпавших осадков за 24 часа, мм.
  • S - Снежный покров - Высота снежного покрова, см. При наведении курсора мыши на число - состояние снежного покрова и степень покрытия местности в баллах.